Back to catalog

ATLAS 5 CENTAUR R/B

AliveHEO
NORAD 27853·ROCKET BODY·🇺🇸 United States

Launched Jul 17, 2003 from Cape Canaveral Space Force Station

Loading…

Next Passes (next 24 hours)

TLE

FreshSource: Space-Track

Epoch: Sep 11, 2026, 14:48 UTC

1 27853U 03033B   26254.61735369 -.00000168  00000-0  00000-0 0  9999
2 27853  18.5213  16.6992 6011057 324.2759   7.5027  2.11268960178598

Track ATLAS 5 CENTAUR R/B in real time with AllMySat

Download on the App Store